ACA168 CYQX-CYHZ

Flight info

Callsign ACA168
Flight time 1h 18m
Altitude 38000
Route SILRO DCT CAYLY CABOT5
Aircraft B38M/M-SDE1FGHILORVWXY/HB1

Departure

Time 2026-04-24 22:28
Airport Gander International Airport (CYQX)

Arrival

Time 2026-04-24 23:46
Airport Halifax / Stanfield International Airport (CYHZ)
Time Latitude Longitude Altitude Speed Heading
2026-04-24 21:49 48.94676 -54.57214 455 ft 0 kts 195°
2026-04-24 22:09 48.94677 -54.57214 455 ft 0 kts 195°
2026-04-24 22:09 48.94678 -54.57213 455 ft 0 kts 195°
2026-04-24 22:09 48.94681 -54.57212 455 ft 1 kts 195°
2026-04-24 22:09 48.94686 -54.57210 453 ft 1 kts 195°
2026-04-24 22:10 48.94692 -54.57207 453 ft 1 kts 195°
2026-04-24 22:10 48.94700 -54.57204 455 ft 1 kts 195°
2026-04-24 22:10 48.94709 -54.57200 455 ft 2 kts 195°
2026-04-24 22:10 48.94726 -54.57200 454 ft 3 kts 137°
2026-04-24 22:11 48.94733 -54.57212 453 ft 0 kts 111°
2026-04-24 22:17 48.94729 -54.57188 453 ft 5 kts 103°
2026-04-24 22:18 48.94721 -54.57117 455 ft 9 kts 101°
2026-04-24 22:18 48.94685 -54.57027 454 ft 11 kts 144°
2026-04-24 22:18 48.94603 -54.57003 453 ft 13 kts 174°
2026-04-24 22:18 48.94515 -54.56962 452 ft 14 kts 154°
2026-04-24 22:19 48.94422 -54.56891 451 ft 16 kts 153°
2026-04-24 22:19 48.94320 -54.56812 451 ft 17 kts 153°
2026-04-24 22:19 48.94212 -54.56727 451 ft 18 kts 153°
2026-04-24 22:19 48.94100 -54.56639 452 ft 18 kts 153°
2026-04-24 22:20 48.93980 -54.56572 453 ft 18 kts 175°
2026-04-24 22:20 48.93859 -54.56606 455 ft 18 kts 189°
2026-04-24 22:20 48.93736 -54.56641 456 ft 18 kts 191°
2026-04-24 22:20 48.93613 -54.56677 457 ft 18 kts 191°
2026-04-24 22:21 48.93485 -54.56714 458 ft 19 kts 191°
2026-04-24 22:21 48.93354 -54.56752 460 ft 19 kts 191°
2026-04-24 22:21 48.93221 -54.56791 461 ft 20 kts 191°
2026-04-24 22:21 48.93086 -54.56829 462 ft 20 kts 191°
2026-04-24 22:22 48.92952 -54.56868 464 ft 18 kts 190°
2026-04-24 22:22 48.92849 -54.56842 465 ft 13 kts 149°
2026-04-24 22:22 48.92791 -54.56784 466 ft 7 kts 146°
2026-04-24 22:22 48.92774 -54.56765 466 ft 0 kts 144°
2026-04-24 22:23 48.92772 -54.56763 466 ft 5 kts 144°
2026-04-24 22:23 48.92741 -54.56708 465 ft 7 kts 116°
2026-04-24 22:23 48.92714 -54.56622 466 ft 10 kts 152°
2026-04-24 22:24 48.92632 -54.56627 466 ft 14 kts 190°
2026-04-24 22:24 48.92521 -54.56658 468 ft 18 kts 191°
2026-04-24 22:24 48.92385 -54.56697 470 ft 22 kts 191°
2026-04-24 22:24 48.92219 -54.56745 472 ft 26 kts 191°
2026-04-24 22:25 48.92122 -54.56831 472 ft 7 kts 169°
2026-04-24 22:25 48.92113 -54.56796 469 ft 4 kts 79°
2026-04-24 22:25 48.92135 -54.56772 471 ft 5 kts 16°
2026-04-24 22:25 48.92146 -54.56769 471 ft 0 kts
2026-04-24 22:27 48.92181 -54.56760 472 ft 17 kts 11°
2026-04-24 22:27 48.92401 -54.56697 470 ft 43 kts 11°
2026-04-24 22:27 48.92675 -54.56618 466 ft 45 kts 11°
2026-04-24 22:27 48.93154 -54.56480 464 ft 94 kts 10°
2026-04-24 22:28 48.93888 -54.56283 487 ft 121 kts
2026-04-24 22:28 48.94760 -54.56050 775 ft 129 kts 11°
2026-04-24 22:28 48.95658 -54.55807 1162 ft 133 kts 11°
2026-04-24 22:28 48.96586 -54.55593 1574 ft 137 kts 12°
2026-04-24 22:29 48.98523 -54.55381 2387 ft 143 kts 11°
2026-04-24 22:29 48.99528 -54.55319 2798 ft 146 kts 11°
2026-04-24 22:29 49.00550 -54.55257 3187 ft 148 kts 11°
2026-04-24 22:30 49.01589 -54.55191 3580 ft 150 kts 11°
2026-04-24 22:30 49.02636 -54.55123 3977 ft 151 kts 11°
2026-04-24 22:30 49.03684 -54.55345 4370 ft 162 kts 339°
2026-04-24 22:30 49.04474 -54.56633 4739 ft 178 kts 297°
2026-04-24 22:31 49.04529 -54.58535 5077 ft 191 kts 248°
2026-04-24 22:31 49.03862 -54.60305 5279 ft 196 kts 238°
2026-04-24 22:31 49.03114 -54.62061 5454 ft 205 kts 238°
2026-04-24 22:31 49.02292 -54.64022 5564 ft 228 kts 238°
2026-04-24 22:32 49.01420 -54.66146 5752 ft 251 kts 238°
2026-04-24 22:32 49.00453 -54.68502 6006 ft 271 kts 238°
2026-04-24 22:32 48.99416 -54.71016 6317 ft 289 kts 238°
2026-04-24 22:32 48.98313 -54.73684 6629 ft 303 kts 238°
2026-04-24 22:33 48.97186 -54.76411 6971 ft 305 kts 238°
2026-04-24 22:33 48.96049 -54.79163 7529 ft 310 kts 237°
2026-04-24 22:33 48.94898 -54.81944 8070 ft 312 kts 237°
2026-04-24 22:33 48.93735 -54.84749 8719 ft 314 kts 237°
2026-04-24 22:34 48.92563 -54.87574 9409 ft 318 kts 237°
2026-04-24 22:34 48.91375 -54.90436 10057 ft 321 kts 236°
2026-04-24 22:34 48.90176 -54.93318 10687 ft 324 kts 236°
2026-04-24 22:34 48.88971 -54.96214 11326 ft 326 kts 236°
2026-04-24 22:35 48.87755 -54.99133 11974 ft 328 kts 235°
2026-04-24 22:35 48.86532 -55.02065 12630 ft 329 kts 235°
2026-04-24 22:35 48.85321 -55.04967 13294 ft 330 kts 234°
2026-04-24 22:35 48.84086 -55.07920 13910 ft 331 kts 234°
2026-04-24 22:36 48.82852 -55.10871 14508 ft 331 kts 234°
2026-04-24 22:36 48.81615 -55.13824 15124 ft 331 kts 234°
2026-04-24 22:36 48.80382 -55.16764 15719 ft 329 kts 234°
2026-04-24 22:36 48.79156 -55.19686 16353 ft 327 kts 234°
2026-04-24 22:37 48.77937 -55.22585 17002 ft 324 kts 233°
2026-04-24 22:37 48.76730 -55.25455 17666 ft 321 kts 233°
2026-04-24 22:37 48.75537 -55.28287 18271 ft 316 kts 233°
2026-04-24 22:37 48.74365 -55.31069 18844 ft 311 kts 233°
2026-04-24 22:38 48.73211 -55.33803 19414 ft 304 kts 233°
2026-04-24 22:38 48.72077 -55.36483 19765 ft 307 kts 233°
2026-04-24 22:38 48.70910 -55.39235 19992 ft 315 kts 233°
2026-04-24 22:38 48.69691 -55.42107 20029 ft 332 kts 233°
2026-04-24 22:39 48.68412 -55.45124 20034 ft 349 kts 233°
2026-04-24 22:39 48.67067 -55.48299 20040 ft 367 kts 233°
2026-04-24 22:39 48.65654 -55.51627 20042 ft 384 kts 234°
2026-04-24 22:39 48.64176 -55.55100 20037 ft 401 kts 234°
2026-04-24 22:40 48.62634 -55.58721 20036 ft 417 kts 234°
2026-04-24 22:40 48.61043 -55.62455 20345 ft 424 kts 234°
2026-04-24 22:40 48.59441 -55.66215 20758 ft 427 kts 234°
2026-04-24 22:40 48.57823 -55.69994 21179 ft 430 kts 234°
2026-04-24 22:41 48.56193 -55.73798 21592 ft 433 kts 234°
2026-04-24 22:41 48.54548 -55.77632 21970 ft 437 kts 234°
2026-04-24 22:41 48.52872 -55.81533 22014 ft 450 kts 234°
2026-04-24 22:41 48.51731 -55.84183 22015 ft 459 kts 234°
2026-04-24 22:42 48.49385 -55.89631 22010 ft 476 kts 234°
2026-04-24 22:42 48.47556 -55.93871 22043 ft 489 kts 234°
2026-04-24 22:42 48.45689 -55.98195 21952 ft 493 kts 234°
2026-04-24 22:42 48.43819 -56.02519 21827 ft 493 kts 234°
2026-04-24 22:43 48.41948 -56.06833 21701 ft 491 kts 234°
2026-04-24 22:43 48.40082 -56.11129 21650 ft 489 kts 234°
2026-04-24 22:43 48.38216 -56.15418 21655 ft 491 kts 234°
2026-04-24 22:43 48.36346 -56.19710 21648 ft 490 kts 234°
2026-04-24 22:44 48.34474 -56.24004 21648 ft 490 kts 234°
2026-04-24 22:44 48.32600 -56.28291 21648 ft 490 kts 234°
2026-04-24 22:44 48.30726 -56.32571 21652 ft 490 kts 234°
2026-04-24 22:44 48.28852 -56.36846 21636 ft 490 kts 234°
2026-04-24 22:45 48.27000 -56.41064 21643 ft 490 kts 234°
2026-04-24 22:45 48.25124 -56.45329 21641 ft 489 kts 234°
2026-04-24 22:45 48.23251 -56.49583 21637 ft 488 kts 234°
2026-04-24 22:45 48.21376 -56.53832 21631 ft 488 kts 234°
2026-04-24 22:46 48.19501 -56.58076 21634 ft 488 kts 234°
2026-04-24 22:46 48.17624 -56.62318 21649 ft 488 kts 234°
2026-04-24 22:46 48.15745 -56.66557 21647 ft 488 kts 234°
2026-04-24 22:46 48.13867 -56.70786 21645 ft 488 kts 234°
2026-04-24 22:47 48.11989 -56.75011 21653 ft 488 kts 234°
2026-04-24 22:47 48.10105 -56.79241 21654 ft 488 kts 234°
2026-04-24 22:47 48.08219 -56.83469 21651 ft 488 kts 234°
2026-04-24 22:47 48.06331 -56.87696 21663 ft 488 kts 234°
2026-04-24 22:48 48.04444 -56.91915 21659 ft 488 kts 234°
2026-04-24 22:48 48.02557 -56.96125 21669 ft 487 kts 234°
2026-04-24 22:48 48.00672 -57.00326 21675 ft 487 kts 234°
2026-04-24 22:48 47.98786 -57.04521 21674 ft 487 kts 234°
2026-04-24 22:49 47.96897 -57.08718 21675 ft 487 kts 234°
2026-04-24 22:49 47.95006 -57.12911 21675 ft 487 kts 234°
2026-04-24 22:49 47.93111 -57.17108 21674 ft 487 kts 234°
2026-04-24 22:49 47.91858 -57.19880 21676 ft 487 kts 234°
2026-04-24 22:50 47.89345 -57.25429 21688 ft 487 kts 234°
2026-04-24 22:50 47.87452 -57.29603 21682 ft 486 kts 234°
2026-04-24 22:50 47.85553 -57.33782 21681 ft 486 kts 234°
2026-04-24 22:50 47.83659 -57.37945 21680 ft 486 kts 234°
2026-04-24 22:51 47.82379 -57.40754 21681 ft 486 kts 234°
2026-04-24 22:51 47.80481 -57.44915 21691 ft 485 kts 234°
2026-04-24 22:51 47.78585 -57.49065 21690 ft 486 kts 234°
2026-04-24 22:51 47.76684 -57.53220 21688 ft 486 kts 234°
2026-04-24 22:52 47.74780 -57.57376 21708 ft 486 kts 234°
2026-04-24 22:52 47.72909 -57.61454 21686 ft 483 kts 234°
2026-04-24 22:52 47.71006 -57.65590 21668 ft 485 kts 233°
2026-04-24 22:52 47.69094 -57.69736 21681 ft 488 kts 233°
2026-04-24 22:53 47.67186 -57.73879 21681 ft 486 kts 233°
2026-04-24 22:53 47.65275 -57.78025 21679 ft 486 kts 233°
2026-04-24 22:53 47.63363 -57.82158 21679 ft 486 kts 233°
2026-04-24 22:53 47.61448 -57.86289 21680 ft 487 kts 233°
2026-04-24 22:54 47.59528 -57.90427 21697 ft 487 kts 233°
2026-04-24 22:54 47.57611 -57.94556 21697 ft 486 kts 233°
2026-04-24 22:54 47.55688 -57.98691 21696 ft 486 kts 233°
2026-04-24 22:54 47.53769 -58.02809 21696 ft 486 kts 233°
2026-04-24 22:55 47.51846 -58.06928 21696 ft 486 kts 233°
2026-04-24 22:55 47.49926 -58.11038 21696 ft 486 kts 233°
2026-04-24 22:55 47.48029 -58.15092 21701 ft 486 kts 233°
2026-04-24 22:55 47.46102 -58.19202 21701 ft 486 kts 233°
2026-04-24 22:56 47.44167 -58.23322 21705 ft 489 kts 233°
2026-04-24 22:56 47.42233 -58.27437 21708 ft 488 kts 233°
2026-04-24 22:56 47.40296 -58.31553 21710 ft 488 kts 233°
2026-04-24 22:56 47.38358 -58.35662 21715 ft 488 kts 233°
2026-04-24 22:57 47.36414 -58.39778 21721 ft 488 kts 233°
2026-04-24 22:57 47.34471 -58.43886 21723 ft 488 kts 233°
2026-04-24 22:57 47.32528 -58.47987 21721 ft 488 kts 233°
2026-04-24 22:57 47.30608 -58.52035 21742 ft 488 kts 233°
2026-04-24 22:58 47.28666 -58.56123 21720 ft 485 kts 233°
2026-04-24 22:58 47.26729 -58.60194 21721 ft 486 kts 233°
2026-04-24 22:58 47.24787 -58.64270 21726 ft 486 kts 233°
2026-04-24 22:58 47.22845 -58.68341 21727 ft 486 kts 233°
2026-04-24 22:59 47.20898 -58.72416 21728 ft 486 kts 233°
2026-04-24 22:59 47.18951 -58.76482 21732 ft 486 kts 233°
2026-04-24 22:59 47.15059 -58.84597 21728 ft 484 kts 233°
2026-04-24 23:00 47.13118 -58.88636 21742 ft 484 kts 233°
2026-04-24 23:00 47.11173 -58.92676 21744 ft 484 kts 233°
2026-04-24 23:00 47.09250 -58.96663 21741 ft 484 kts 233°
2026-04-24 23:00 47.07304 -59.00696 21749 ft 484 kts 233°
2026-04-24 23:01 47.05356 -59.04724 21749 ft 484 kts 233°
2026-04-24 23:01 47.03404 -59.08757 21751 ft 484 kts 233°
2026-04-24 23:01 47.01458 -59.12769 21748 ft 483 kts 233°
2026-04-24 23:01 46.99516 -59.16769 21751 ft 481 kts 233°
2026-04-24 23:02 46.97563 -59.20784 21756 ft 482 kts 233°
2026-04-24 23:02 46.95615 -59.24783 21753 ft 482 kts 233°
2026-04-24 23:02 46.93672 -59.28767 21758 ft 481 kts 233°
2026-04-24 23:02 46.91752 -59.32699 21762 ft 481 kts 233°
2026-04-24 23:03 46.89805 -59.36680 21757 ft 481 kts 233°
2026-04-24 23:03 46.87853 -59.40665 21768 ft 482 kts 233°
2026-04-24 23:03 46.85901 -59.44644 21763 ft 482 kts 233°
2026-04-24 23:03 46.83945 -59.48626 21766 ft 481 kts 233°
2026-04-24 23:04 46.81990 -59.52601 21772 ft 481 kts 233°
2026-04-24 23:04 46.80034 -59.56570 21769 ft 481 kts 233°
2026-04-24 23:04 46.78077 -59.60537 21769 ft 481 kts 233°
2026-04-24 23:04 46.76117 -59.64505 21775 ft 482 kts 233°
2026-04-24 23:05 46.74155 -59.68469 21781 ft 482 kts 232°
2026-04-24 23:05 46.72194 -59.72428 21777 ft 482 kts 232°
2026-04-24 23:05 46.70232 -59.76382 21801 ft 482 kts 233°
2026-04-24 23:05 46.68264 -59.80344 21802 ft 482 kts 233°
2026-04-24 23:06 46.66294 -59.84304 21806 ft 482 kts 233°
2026-04-24 23:06 46.64325 -59.88254 21811 ft 482 kts 232°
2026-04-24 23:06 46.62382 -59.92148 21812 ft 482 kts 232°
2026-04-24 23:06 46.60409 -59.96097 21810 ft 482 kts 232°
2026-04-24 23:07 46.58436 -60.00040 21815 ft 481 kts 232°
2026-04-24 23:07 46.56464 -60.03975 21814 ft 481 kts 233°
2026-04-24 23:07 46.54493 -60.07903 21810 ft 480 kts 233°
2026-04-24 23:07 46.52525 -60.11819 21816 ft 480 kts 232°
2026-04-24 23:08 46.50555 -60.15734 21819 ft 480 kts 232°
2026-04-24 23:08 46.48581 -60.19652 21827 ft 480 kts 232°
2026-04-24 23:08 46.46611 -60.23555 21827 ft 480 kts 232°
2026-04-24 23:08 46.44635 -60.27466 21827 ft 480 kts 232°
2026-04-24 23:09 46.42686 -60.31318 21824 ft 480 kts 232°
2026-04-24 23:09 46.40711 -60.35214 21826 ft 479 kts 232°
2026-04-24 23:09 46.38737 -60.39104 21825 ft 479 kts 232°
2026-04-24 23:09 46.36761 -60.42993 21826 ft 480 kts 232°
2026-04-24 23:10 46.34780 -60.46885 21827 ft 480 kts 232°
2026-04-24 23:10 46.32795 -60.50782 21828 ft 481 kts 232°
2026-04-24 23:10 46.30807 -60.54678 21828 ft 480 kts 232°
2026-04-24 23:10 46.28819 -60.58569 21831 ft 480 kts 232°
2026-04-24 23:11 46.26833 -60.62449 21830 ft 480 kts 232°
2026-04-24 23:11 46.24870 -60.66280 21828 ft 479 kts 232°
2026-04-24 23:11 46.22887 -60.70144 21824 ft 479 kts 232°
2026-04-24 23:11 46.20896 -60.74018 21585 ft 483 kts 232°
2026-04-24 23:12 46.18911 -60.77877 21031 ft 468 kts 232°
2026-04-24 23:12 46.17063 -60.81474 20443 ft 426 kts 232°
2026-04-24 23:12 46.15354 -60.84789 19856 ft 403 kts 232°
2026-04-24 23:12 46.13655 -60.88065 19367 ft 409 kts 233°
2026-04-24 23:13 46.11958 -60.91340 18868 ft 406 kts 233°
2026-04-24 23:13 46.10275 -60.94598 18386 ft 404 kts 233°
2026-04-24 23:13 46.08602 -60.97830 17857 ft 401 kts 233°
2026-04-24 23:13 46.06954 -61.01006 17292 ft 384 kts 233°
2026-04-24 23:14 46.05373 -61.04047 16717 ft 379 kts 234°
2026-04-24 23:14 46.03775 -61.07122 16358 ft 383 kts 233°
2026-04-24 23:14 46.02186 -61.10172 15971 ft 379 kts 234°
2026-04-24 23:14 46.00615 -61.13187 15583 ft 374 kts 234°
2026-04-24 23:15 45.99062 -61.16164 15201 ft 370 kts 234°
2026-04-24 23:15 45.97521 -61.19115 14814 ft 366 kts 234°
2026-04-24 23:15 45.96001 -61.22023 14445 ft 362 kts 234°
2026-04-24 23:15 45.94515 -61.24861 14254 ft 356 kts 234°
2026-04-24 23:16 45.93015 -61.27726 14139 ft 361 kts 234°
2026-04-24 23:16 45.91508 -61.30600 14018 ft 359 kts 234°
2026-04-24 23:16 45.90008 -61.33458 13898 ft 358 kts 234°
2026-04-24 23:16 45.88507 -61.36315 13776 ft 359 kts 234°
2026-04-24 23:17 45.87007 -61.39165 13661 ft 357 kts 234°
2026-04-24 23:17 45.85514 -61.42002 13508 ft 356 kts 234°
2026-04-24 23:17 45.84019 -61.44839 13384 ft 355 kts 234°
2026-04-24 23:17 45.82548 -61.47627 13254 ft 351 kts 234°
2026-04-24 23:18 45.81071 -61.50423 13114 ft 355 kts 235°
2026-04-24 23:18 45.79589 -61.53228 12985 ft 349 kts 234°
2026-04-24 23:18 45.78122 -61.56000 12853 ft 351 kts 234°
2026-04-24 23:18 45.76645 -61.58788 12720 ft 351 kts 234°
2026-04-24 23:19 45.75184 -61.61544 12589 ft 345 kts 234°
2026-04-24 23:19 45.73725 -61.64293 12449 ft 349 kts 234°
2026-04-24 23:19 45.72259 -61.67054 12314 ft 346 kts 235°
2026-04-24 23:19 45.70809 -61.69780 12195 ft 344 kts 234°
2026-04-24 23:20 45.69351 -61.72520 12047 ft 348 kts 235°
2026-04-24 23:20 45.67892 -61.75258 11915 ft 341 kts 234°
2026-04-24 23:20 45.66462 -61.77938 11827 ft 341 kts 234°
2026-04-24 23:20 45.65020 -61.80642 11785 ft 343 kts 234°
2026-04-24 23:21 45.63575 -61.83346 11751 ft 346 kts 234°
2026-04-24 23:21 45.62075 -61.86155 11720 ft 360 kts 234°
2026-04-24 23:21 45.60544 -61.89012 11685 ft 362 kts 234°
2026-04-24 23:21 45.59017 -61.91858 11643 ft 361 kts 235°
2026-04-24 23:22 45.57480 -61.94724 11599 ft 365 kts 234°
2026-04-24 23:22 45.55947 -61.97579 11549 ft 359 kts 234°
2026-04-24 23:22 45.54419 -62.00423 11505 ft 362 kts 234°
2026-04-24 23:22 45.52884 -62.03275 11445 ft 360 kts 234°
2026-04-24 23:23 45.51395 -62.06038 11395 ft 355 kts 234°
2026-04-24 23:23 45.49877 -62.08855 11348 ft 357 kts 235°
2026-04-24 23:23 45.48359 -62.11670 11294 ft 361 kts 233°
2026-04-24 23:23 45.46841 -62.14480 11240 ft 358 kts 234°
2026-04-24 23:24 45.45314 -62.17303 11186 ft 359 kts 235°
2026-04-24 23:24 45.43798 -62.20103 11139 ft 356 kts 234°
2026-04-24 23:24 45.42275 -62.22914 11084 ft 358 kts 234°
2026-04-24 23:24 45.40755 -62.25716 11042 ft 356 kts 234°
2026-04-24 23:25 45.39242 -62.28504 10985 ft 358 kts 233°
2026-04-24 23:25 45.37721 -62.31305 10936 ft 356 kts 233°
2026-04-24 23:25 45.36205 -62.34089 10886 ft 355 kts 234°
2026-04-24 23:25 45.34695 -62.36863 10831 ft 357 kts 234°
2026-04-24 23:26 45.33176 -62.39652 10782 ft 354 kts 234°
2026-04-24 23:26 45.31667 -62.42416 10731 ft 354 kts 234°
2026-04-24 23:26 45.30175 -62.45149 10686 ft 356 kts 234°
2026-04-24 23:26 45.28663 -62.47914 10603 ft 353 kts 233°
2026-04-24 23:27 45.27176 -62.50629 10459 ft 342 kts 234°
2026-04-24 23:27 45.25742 -62.53246 10323 ft 330 kts 233°
2026-04-24 23:27 45.24361 -62.55765 10176 ft 318 kts 234°
2026-04-24 23:27 45.23025 -62.58202 10028 ft 307 kts 236°
2026-04-24 23:28 45.21741 -62.60538 10009 ft 293 kts 236°
2026-04-24 23:28 45.20503 -62.62793 10008 ft 290 kts 235°
2026-04-24 23:28 45.19267 -62.65047 10016 ft 289 kts 233°
2026-04-24 23:28 45.18024 -62.67305 10012 ft 292 kts 234°
2026-04-24 23:29 45.16785 -62.69552 10013 ft 289 kts 233°
2026-04-24 23:29 45.15544 -62.71802 10016 ft 290 kts 234°
2026-04-24 23:29 45.14299 -62.74058 10017 ft 291 kts 235°
2026-04-24 23:29 45.13051 -62.76320 10016 ft 290 kts 236°
2026-04-24 23:30 45.11809 -62.78567 10013 ft 289 kts 235°
2026-04-24 23:30 45.10578 -62.80792 10013 ft 290 kts 235°
2026-04-24 23:30 45.09330 -62.83050 10015 ft 289 kts 234°
2026-04-24 23:30 45.08106 -62.85258 10014 ft 284 kts 234°
2026-04-24 23:31 45.06877 -62.87477 10017 ft 286 kts 233°
2026-04-24 23:31 45.05645 -62.89695 10017 ft 287 kts 234°
2026-04-24 23:31 45.04415 -62.91913 10019 ft 286 kts 233°
2026-04-24 23:31 45.03185 -62.94125 10019 ft 286 kts 233°
2026-04-24 23:32 45.01954 -62.96339 10028 ft 286 kts 234°
2026-04-24 23:32 45.00719 -62.98557 10029 ft 286 kts 234°
2026-04-24 23:32 44.99487 -63.00772 10025 ft 286 kts 234°
2026-04-24 23:32 44.98251 -63.02987 10029 ft 286 kts 236°
2026-04-24 23:33 44.97017 -63.05201 10027 ft 287 kts 234°
2026-04-24 23:33 44.96198 -63.06668 10028 ft 287 kts 233°
2026-04-24 23:33 44.94564 -63.09591 10025 ft 281 kts 234°
2026-04-24 23:33 44.93376 -63.11710 9979 ft 270 kts 235°
2026-04-24 23:34 44.92200 -63.13817 9126 ft 272 kts 235°
2026-04-24 23:34 44.91041 -63.15892 8271 ft 267 kts 234°
2026-04-24 23:34 44.89903 -63.17921 7524 ft 260 kts 235°
2026-04-24 23:34 44.88796 -63.19892 6840 ft 252 kts 235°
2026-04-24 23:35 44.87722 -63.21807 6268 ft 244 kts 236°
2026-04-24 23:35 44.86688 -63.23649 5685 ft 235 kts 236°
2026-04-24 23:35 44.85684 -63.25436 5123 ft 230 kts 236°
2026-04-24 23:35 44.84700 -63.27189 4568 ft 226 kts 236°
2026-04-24 23:36 44.83568 -63.28700 4064 ft 225 kts 215°
2026-04-24 23:36 44.82343 -63.29866 4058 ft 212 kts 231°
2026-04-24 23:36 44.81374 -63.31480 4054 ft 215 kts 236°
2026-04-24 23:36 44.80486 -63.33106 4045 ft 207 kts 238°
2026-04-24 23:37 44.79598 -63.34761 4034 ft 211 kts 236°
2026-04-24 23:37 44.78675 -63.36395 4037 ft 215 kts 234°
2026-04-24 23:37 44.76716 -63.39741 4029 ft 226 kts 233°
2026-04-24 23:38 44.75726 -63.41430 4029 ft 223 kts 233°
2026-04-24 23:38 44.74733 -63.43125 4023 ft 223 kts 234°
2026-04-24 23:38 44.73737 -63.44823 4023 ft 224 kts 233°
2026-04-24 23:38 44.72746 -63.46511 4030 ft 224 kts 233°
2026-04-24 23:39 44.72089 -63.47628 4024 ft 223 kts 233°
2026-04-24 23:39 44.71102 -63.49314 4027 ft 223 kts 233°
2026-04-24 23:39 44.70111 -63.51001 4023 ft 223 kts 233°
2026-04-24 23:39 44.69122 -63.52688 4025 ft 224 kts 233°
2026-04-24 23:40 44.68131 -63.54376 4026 ft 224 kts 233°
2026-04-24 23:40 44.67354 -63.56213 4019 ft 218 kts 263°
2026-04-24 23:40 44.67604 -63.58206 4032 ft 209 kts 306°
2026-04-24 23:40 44.68673 -63.59529 4027 ft 205 kts 327°
2026-04-24 23:41 44.69829 -63.60712 4019 ft 203 kts 322°
2026-04-24 23:41 44.70756 -63.62084 3958 ft 184 kts 309°
2026-04-24 23:41 44.71442 -63.63472 3848 ft 168 kts 307°
2026-04-24 23:41 44.72156 -63.64731 3757 ft 164 kts 327°
2026-04-24 23:42 44.73211 -63.65209 3624 ft 161 kts 359°
2026-04-24 23:42 44.74277 -63.64785 3356 ft 159 kts 27°
2026-04-24 23:42 44.75206 -63.63936 3139 ft 159 kts 32°
2026-04-24 23:42 44.76101 -63.63053 2932 ft 158 kts 32°
2026-04-24 23:43 44.76998 -63.62168 2719 ft 156 kts 32°
2026-04-24 23:43 44.77883 -63.61294 2515 ft 155 kts 32°
2026-04-24 23:43 44.78748 -63.60438 2314 ft 147 kts 32°
2026-04-24 23:43 44.79567 -63.59629 2122 ft 146 kts 32°
2026-04-24 23:44 44.80377 -63.58828 1944 ft 142 kts 32°
2026-04-24 23:44 44.81152 -63.58060 1756 ft 127 kts 32°
2026-04-24 23:44 44.81882 -63.57339 1576 ft 127 kts 32°
2026-04-24 23:44 44.82610 -63.56619 1406 ft 129 kts 32°
2026-04-24 23:45 44.83346 -63.55886 1236 ft 130 kts 32°
2026-04-24 23:45 44.84097 -63.55148 1084 ft 133 kts 31°
2026-04-24 23:45 44.84868 -63.54415 897 ft 135 kts 31°
2026-04-24 23:45 44.85642 -63.53678 747 ft 134 kts 34°
2026-04-24 23:46 44.86396 -63.52890 566 ft 135 kts 34°
2026-04-24 23:46 44.87111 -63.52192 461 ft 99 kts 35°
2026-04-24 23:46 44.87482 -63.51826 458 ft 40 kts 36°
2026-04-24 23:46 44.87652 -63.51658 459 ft 26 kts 34°
2026-04-24 23:47 44.87786 -63.51528 462 ft 21 kts 36°
2026-04-24 23:47 44.87908 -63.51404 460 ft 23 kts 35°
2026-04-24 23:47 44.88050 -63.51263 458 ft 28 kts 36°
2026-04-24 23:47 44.88228 -63.51090 458 ft 33 kts 34°
2026-04-24 23:48 44.88329 -63.51030 458 ft 6 kts 326°
2026-04-24 23:48 44.88356 -63.51092 458 ft 11 kts 303°
2026-04-24 23:48 44.88413 -63.51202 459 ft 12 kts 329°
2026-04-24 23:48 44.88516 -63.51226 458 ft 14 kts 354°
2026-04-24 23:49 44.88551 -63.51259 458 ft 8 kts 287°
2026-04-24 23:49 44.88550 -63.51338 458 ft 0 kts 269°